This demonstration page uses our WeatherBlox Daily Observations layout. Learn more.

Left ArrowRight Arrow

39.12711, -84.51439

Hourly Observations for May 3, 2018

Temp ( °F °C ) Dew Point ( °F °C ) Humidity (%) Winds ( mph kmh ) Pressure ( in mb ) Visibility ( mi km ) Precip ( " mm )
12:53 am 00:53 Clear 69 20.6 60 15.6 73 73 SSW 9 15 30.05 1018 10 16 0.00 0.00
1:53 am 01:53 Clear 69 20.6 60 15.6 73 73 WSW 5 7 30.05 1018 10 16 0.00 0.00
2:53 am 02:53 Clear 66 18.9 59 15 78 78 SW 3 6 30.05 1018 10 16 0.00 0.00
3:53 am 03:53 Mostly Cloudy 64 17.8 60 15.6 87 87 SW 7 11 30.06 1018 10 16 0.00 0.00
4:53 am 04:53 Mostly Cloudy 69 20.6 60 15.6 73 73 SSW 12 19 30.05 1018 10 16 0.00 0.00
5:53 am 05:53 Cloudy 69 20.6 60 15.6 73 73 SSW 10 17 30.04 1017 10 16 0.00 0.00
6:53 am 06:53 Mostly Sunny 67 19.4 59 15 76 76 S 9 15 30.04 1017 10 16 0.00 0.00
7:53 am 07:53 Sunny 69 20.6 60 15.6 73 73 SSW 8 13 30.06 1018 10 16 0.00 0.00
8:53 am 08:53 Sunny 73 22.8 59 15 62 62 SSW 13 20 30.05 1018 10 16 0.00 0.00
9:53 am 09:53 Sunny 76 24.4 60 15.6 58 58 SW 17 28 30.04 1017 10 16 0.00 0.00
10:53 am 10:53 Sunny 77 25 62 16.7 60 60 SW 16 26 30.06 1018 10 16 0.00 0.00
11:53 am 11:53 Cloudy with Light Rain 72 22.2 64 17.8 76 76 WSW 15 24 30.11 1020 6 10 0.01 0.25
12:53 pm 12:53 Sunny 73 22.8 64 17.8 74 74 SSW 13 20 30.06 1018 10 16 0.00 0.03
1:53 pm 13:53 Partly Cloudy 76 24.4 65 18.3 69 69 S 14 22 30.04 1017 10 16 0.00 0.00
2:53 pm 14:53 Partly Cloudy 79 26.1 65 18.3 62 62 SSW 20 31 30.05 1018 10 16 0.00 0.00
3:53 pm 15:53 Mostly Cloudy 81 27.2 64 17.8 57 57 SW 17 28 30.04 1017 10 16 0.00 0.00
4:53 pm 16:53 Mostly Cloudy 79 26.1 63 17.2 58 58 SSW 21 33 30.04 1017 10 16 0.00 0.00
5:53 pm 17:53 Cloudy 77 25 62 16.7 60 60 SW 21 33 30.05 1018 10 16 0.00 0.00
6:53 pm 18:53 Mostly Cloudy 74 23.3 63 17.2 69 69 SW 14 22 30.05 1018 10 16 0.00 0.00
7:53 pm 19:53 Mostly Cloudy 73 22.8 64 17.8 74 74 WSW 7 11 30.05 1018 10 16 0.00 0.00
8:53 pm 20:53 Cloudy 71 21.7 64 17.8 79 79 SSW 5 7 30.05 1018 10 16 0.00 0.00
9:53 pm 21:53 Mostly Cloudy 69 20.6 63 17.2 81 81 S 3 6 30.04 1017 10 16 0.00 0.00
10:53 pm 22:53 Mostly Cloudy 69 20.6 64 17.8 84 84 WSW 3 6 30.03 1017 10 16 0.00 0.00
11:53 pm 23:53 Mostly Cloudy 69 20.6 63 17.2 81 81 S 7 11 29.97 1015 10 16 0.00 0.00

Powered by AerisWeather